Content
SEND FEEDBACK

Daily
Averages
Monthly
Summary
Canada

MONTREAL, QUEBEC


Home > North America > Canada > Quebec
Elevation: 118 feet     Latitude: 45 28N     Longitude: 073 45W

WEATHER
 
SELECT A DAY
Number of Records: 201,677;   Date Range: 1/1/95 - 10/29/14
 
SHARE

PRINT THIS DATA

[ ← Previous Day ]
WEATHER ALMANAC - FEBRUARY 3, 2013
[ Next Day → ]
[ °C ]   °F
Weather ElementAverageHighLow
Temperature9.6 °F15.8 °F (4:00 pm)3.2 °F (5:00 am)
Dewpoint2.9 °F8.6 °F (3:00 pm)-2.2 °F (3:00 am)
Humidity74.5 %79 % (12:00 pm)64 % (1:00 am)
Barometer27.81 in30.08 in (1:00 am) (7:00 pm)
Wind Speed8.6 mph11.5 mph (2:00 pm)
Weather ElementAverage
Visibility13.6 mi
Wind DirectionESE (125.7 °)

Weather ElementTotal
Precipitation---
Heating Degree Days55.5 (Base 65)
Averaged from 28 records on February 3, 2013
WEATHER CONDITIONS BREAKOUT
WIND DIRECTION BREAKOUT
WEATHER BY HOUR - FEBRUARY 3, 2013
[ °C ]   °F
Local TimeTemperatureDewpointHumidityBarometerVisibilityWind DirectionWind SpeedGust SpeedPrecipitationEventsConditions
1:00 AM5.0 °F-1.0 °F64 %30.08 in7.0 miNNE (20°)8.1 mphSnowLight Snow
1:00 AM5.0 °F-0.4 °F78 %30.08 in8.0 miNNE (20°)9.2 mphSnowLight Snow
2:00 AM5.0 °F-0.4 °F78 %30.07 in7.0 miNorth (360°)10.4 mphSnowLight Snow
3:00 AM5.0 °F-2.2 °F72 %30.07 in6.0 miNorth (360°)9.2 mphSnowLight Snow
4:00 AM5.0 °F-2.2 °F72 %30.06 in12.0 miNNE (20°)9.2 mphSnowLight Snow
5:00 AM3.2 °F-2.2 °F78 %30.05 in15.0 miNNE (20°)10.4 mphSnowLight Snow
6:00 AM3.2 °F-2.2 °F78 %30.04 in15.0 miNorth (360°)9.2 mphSnowLight Snow
7:00 AM3.2 °F-2.2 °F78 %30.04 in15.0 miNorth (10°)6.9 mphSnowLight Snow
8:00 AM5.0 °F-2.2 °F72 %30.04 in15.0 miNNE (20°)10.4 mphSnowLight Snow
9:00 AM5.0 °F-0.4 °F78 %30.03 in12.0 miNNE (20°)8.1 mphSnowLight Snow
10:00 AM6.8 °F-0.4 °F72 %30.02 in15.0 miNorth (360°)6.9 mphSnowLight Snow
11:00 AM8.6 °F1.4 °F73 %30.01 in15.0 miNNE (20°)8.1 mphMostly Cloudy
11:52 AM10.4 °F0.0 °F15.0 miNorth (360°)8.1 mphMostly Cloudy
12:00 PM10.4 °F5.0 °F79 %29.97 in15.0 miNorth (360°)8.1 mphMostly Cloudy
1:00 PM12.2 °F5.0 °F73 %29.94 in15.0 miNNE (30°)9.2 mphMostly Cloudy
1:00 PM12.0 °F5.0 °F64 %29.94 in15.0 miNNE (20°)9.2 mphPartly Cloudy
2:00 PM14.0 °F6.8 °F73 %29.91 in15.0 miNorth (10°)11.5 mphMostly Cloudy
3:00 PM14.0 °F8.6 °F79 %29.89 in15.0 miNNE (20°)11.5 mphMostly Cloudy
4:00 PM15.8 °F8.6 °F73 %29.87 in15.0 miNNE (30°)10.4 mphMostly Cloudy
5:00 PM14.0 °F6.8 °F73 %29.86 in15.0 miNorth (10°)9.2 mphMostly Cloudy
6:00 PM12.2 °F6.8 °F79 %29.85 in15.0 miNorth (10°)9.2 mphScattered Clouds
7:00 PM14.0 °F6.8 °F73 %29.84 in15.0 miNNE (20°)8.1 mphMostly Cloudy
7:00 PM13.0 °F7.0 °F69 %29.84 in15.0 miNNE (20°)8.1 mphMostly Cloudy
8:00 PM12.2 °F6.8 °F79 %29.84 in15.0 miNNW (330°)5.8 mphOvercast
9:00 PM12.2 °F6.8 °F79 %29.83 in15.0 miNorth (350°)6.9 mphOvercast
9:30 PM14.0 °F0.0 °F15.0 miNorth (10°)6.9 mphSnowLight Snow
10:00 PM14.0 °F6.8 °F73 %29.82 in15.0 miNNW (340°)4.6 mphSnowLight Snow
11:00 PM14.0 °F8.6 °F79 %29.80 in15.0 miNorth (10°)8.1 mphSnowLight Snow
Hourly data recorded from CYUL, located miles away from Montreal, Quebec







STORIES FROM OUR PARTNERS